FW0910 Weather Reports


time (UTC)temp
C
wind
direction
speed
KPH
gust
KPH
rain 1hr
cm
rain 24hr
cm
rain mn
cm
humidity
%
barometer
mb
20200229070015 13 0.0 1.6 0.00 0.00 0.00 51 1016.2
20200229065017 13 45 3.2 6.4 0.00 0.00 0.00 50 1016.1
20200229064016 13 45 3.2 4.8 0.00 0.00 0.00 51 1016.1
20200229063016 13 45 4.8 6.4 0.00 0.00 0.00 52 1016.2
20200229062016 13 22 4.8 8.0 0.00 0.00 0.00 52 1016.2
20200229061017 12 22 6.4 8.0 0.00 0.00 0.00 55 1016.3
20200229060016 11 22 1.6 3.2 0.00 0.00 0.00 56 1016.5
20200229055016 12 22 3.2 3.2 0.00 0.00 0.00 54 1016.6
20200229054016 12 22 1.6 3.2 0.00 0.00 0.00 51 1016.4
20200229053016 12 0.0 1.6 0.00 0.00 0.00 52 1016.5
20200229052016 13 0.0 1.6 0.00 0.00 0.00 50 1016.4
20200229051016 13 22 1.6 1.6 0.00 0.00 0.00 51 1016.2
20200229050016 13 22 1.6 1.6 0.00 0.00 0.00 48 1016.0
20200229045051 15 22 1.6 3.2 0.00 0.00 0.00 45 1016.0
20200229044016 15 22 4.8 6.4 0.00 0.00 0.00 45 1015.8
20200229043016 15 22 4.8 6.4 0.00 0.00 0.00 43 1015.9
20200229042016 16 0 1.6 3.2 0.00 0.00 0.00 40 1016.0
20200229041016 16 337 3.2 3.2 0.00 0.00 0.00 39 1016.0
20200229040021 16 315 3.2 6.4 0.00 0.00 0.00 38 1016.2
20200229035016 15 315 1.6 1.6 0.00 0.00 0.00 40 1016.2
20200229034017 15 315 3.2 4.8 0.00 0.00 0.00 45 1016.1
20200229033016 15 0.0 1.6 0.00 0.00 0.00 44 1015.9
20200229032016 16 0.0 1.6 0.00 0.00 0.00 42 1015.9
20200229031016 16 0.0 0.0 0.00 0.00 0.00 43 1015.8
20200229030017 17 0.0 0.0 0.00 0.00 0.00 40 1015.7
20200229025016 18 0.0 0.0 0.00 0.00 0.00 36 1015.6
20200229024016 18 0.0 0.0 0.00 0.00 0.00 35 1015.4
20200229023016 20 0.0 0.0 0.00 0.00 0.00 33 1015.2
20200229022016 20 0.0 0.0 0.00 0.00 0.00 33 1015.2
20200229021017 21 292 1.6 1.6 0.00 0.00 0.00 33 1015.0
20200229020016 21 292 1.6 3.2 0.00 0.00 0.00 32 1014.9
20200229015021 21 292 3.2 4.8 0.00 0.00 0.00 32 1014.9
20200229014016 23 0.0 1.6 0.00 0.00 0.00 30 1015.0
20200229013016 24 0.0 1.6 0.00 0.00 0.00 28 1015.0
20200229012016 25 292 1.6 3.2 0.00 0.00 0.00 27 1014.9
20200229011016 25 0.0 1.6 0.00 0.00 0.00 26 1014.9
20200229010016 25 292 3.2 3.2 0.00 0.00 0.00 24 1015.1
20200229005016 25 292 3.2 6.4 0.00 0.00 0.00 23 1015.0
20200229004016 26 270 1.6 3.2 0.00 0.00 0.00 22 1015.0
20200229003016 26 292 3.2 6.4 0.00 0.00 0.00 21 1014.9
20200229002016 26 292 4.8 6.4 0.00 0.00 0.00 20 1014.9
20200229001015 26 292 3.2 6.4 0.00 0.00 0.00 20 1015.0
20200229000016 27 270 6.4 9.7 0.00 0.00 0.00 18 1015.2
20200228235015 27 270 6.4 9.7 0.00 0.00 0.00 18 1015.2
20200228234016 27 270 4.8 9.7 0.00 0.00 0.00 18 1015.1
20200228233016 28 292 3.2 4.8 0.00 0.00 0.00 17 1015.1
20200228232016 28 292 8.0 12.9 0.00 0.00 0.00 16 1015.0
20200228231015 28 292 4.8 6.4 0.00 0.00 0.00 15 1015.1
20200228230016 28 270 3.2 3.2 0.00 0.00 0.00 13 1015.0
20200228225015 29 247 4.8 6.4 0.00 0.00 0.00 13 1015.2
20200228224016 29 270 3.2 6.4 0.00 0.00 0.00 13 1015.1
20200228223016 29 270 9.7 12.9 0.00 0.00 0.00 14 1015.0
20200228222015 29 270 9.7 12.9 0.00 0.00 0.00 14 1015.2
20200228221016 29 270 8.0 11.3 0.00 0.00 0.00 15 1015.4
20200228220016 29 270 4.8 8.0 0.00 0.00 0.00 15 1015.4
20200228215015 29 247 3.2 8.0 0.00 0.00 0.00 15 1015.4
20200228214015 29 270 1.6 3.2 0.00 0.00 0.00 14 1015.4
20200228213021 29 292 4.8 6.4 0.00 0.00 0.00 13 1015.4
20200228212016 29 315 3.2 4.8 0.00 0.00 0.00 14 1015.5
20200228211015 28 180 1.6 3.2 0.00 0.00 0.00 14 1015.6
20200228210015 29 247 1.6 3.2 0.00 0.00 0.00 14 1015.5
20200228205015 29 225 6.4 11.3 0.00 0.00 0.00 14 1015.4
20200228204015 29 22 4.8 8.0 0.00 0.00 0.00 13 1015.4
20200228203017 29 135 4.8 8.0 0.00 0.00 0.00 13 1015.4
20200228202017 29 90 3.2 4.8 0.00 0.00 0.00 14 1015.5
20200228201018 28 270 4.8 6.4 0.00 0.00 0.00 14 1015.8
20200228200017 28 112 1.6 3.2 0.00 0.00 0.00 14 1015.9
20200228195017 28 90 3.2 4.8 0.00 0.00 0.00 15 1015.9
20200228194018 27 180 1.6 1.6 0.00 0.00 0.00 15 1016.1
20200228193017 27 45 1.6 3.2 0.00 0.00 0.00 15 1016.2
20200228192017 27 67 3.2 4.8 0.00 0.00 0.00 16 1016.6
20200228191018 27 135 3.2 4.8 0.00 0.00 0.00 16 1016.8
20200228190017 27 45 1.6 3.2 0.00 0.00 0.00 19 1016.9
20200228185017 27 0 1.6 1.6 0.00 0.00 0.00 20 1017.2
20200228184017 26 337 1.6 3.2 0.00 0.00 0.00 24 1017.4
20200228183017 26 0.0 1.6 0.00 0.00 0.00 20 1017.6
20200228182018 26 67 3.2 4.8 0.00 0.00 0.00 22 1017.5
20200228181018 25 90 3.2 4.8 0.00 0.00 0.00 24 1017.4
20200228180019 25 22 3.2 4.8 0.00 0.00 0.00 25 1017.4
20200228175017 23 45 1.6 3.2 0.00 0.00 0.00 30 1017.5
20200228174017 23 45 1.6 3.2 0.00 0.00 0.00 33 1017.6
20200228173017 22 45 1.6 3.2 0.00 0.00 0.00 35 1017.6
20200228172017 21 0.0 1.6 0.00 0.00 0.00 36 1017.6
20200228171018 21 22 1.6 3.2 0.00 0.00 0.00 37 1017.7
20200228170017 20 22 1.6 3.2 0.00 0.00 0.00 41 1017.6
20200228165017 20 22 6.4 8.0 0.00 0.00 0.00 41 1017.8
20200228164017 19 22 4.8 6.4 0.00 0.00 0.00 43 1017.7
20200228163017 18 0 3.2 4.8 0.00 0.00 0.00 44 1017.8
20200228162017 18 0 1.6 3.2 0.00 0.00 0.00 45 1017.9
20200228161017 17 0 3.2 4.8 0.00 0.00 0.00 45 1017.8
20200228160017 17 22 3.2 4.8 0.00 0.00 0.00 47 1017.6
20200228155017 16 0 4.8 6.4 0.00 0.00 0.00 50 1017.4
20200228154017 16 0 6.4 11.3 0.00 0.00 0.00 52 1017.3
20200228153017 15 0 3.2 4.8 0.00 0.00 0.00 56 1017.4
20200228152017 14 0 1.6 3.2 0.00 0.00 0.00 60 1017.3
20200228151017 13 22 4.8 6.4 0.00 0.00 0.00 61 1017.1
20200228150017 13 22 1.6 3.2 0.00 0.00 0.00 61 1016.9
20200228145017 13 22 6.4 8.0 0.00 0.00 0.00 61 1016.8
20200228144016 13 22 3.2 4.8 0.00 0.00 0.00 62 1016.6
20200228143017 13 22 8.0 11.3 0.00 0.00 0.00 61 1016.5
20200228142017 13 22 8.0 9.7 0.00 0.00 0.00 63 1016.3
20200228141017 12 22 6.4 12.9 0.00 0.00 0.00 66 1016.2
20200228140017 11 45 6.4 8.0 0.00 0.00 0.00 69 1016.3
20200228135016 11 45 4.8 6.4 0.00 0.00 0.00 70 1016.4
20200228134016 11 45 4.8 6.4 0.00 0.00 0.00 70 1016.3
20200228133016 10 45 3.2 4.8 0.00 0.00 0.00 72 1016.2
20200228132016 10 22 3.2 4.8 0.00 0.00 0.00 73 1016.3
20200228131016 10 22 1.6 3.2 0.00 0.00 0.00 71 1016.1
20200228130017 10 22 3.2 4.8 0.00 0.00 0.00 71 1016.0
20200228125016 10 22 3.2 4.8 0.00 0.00 0.00 71 1016.0
20200228124016 9 22 4.8 6.4 0.00 0.00 0.00 75 1015.9
20200228123016 8 22 3.2 4.8 0.00 0.00 0.00 74 1015.9
20200228122016 8 0.0 0.0 0.00 0.00 0.00 74 1015.9
20200228121016 8 0.0 1.6 0.00 0.00 0.00 74 1015.8
20200228120016 8 22 3.2 4.8 0.00 0.00 0.00 72 1015.8
20200228115016 9 22 1.6 1.6 0.00 0.00 0.00 71 1015.7
20200228114016 10 0.0 0.0 0.00 0.00 0.00 70 1015.7
20200228113016 10 0.0 0.0 0.00 0.00 0.00 68 1015.8
20200228112017 10 0.0 0.0 0.00 0.00 0.00 68 1015.9
20200228111016 10 0.0 0.0 0.00 0.00 0.00 66 1015.8
20200228110016 10 0.0 0.0 0.00 0.00 0.00 67 1016.0
20200228105016 10 0.0 1.6 0.00 0.00 0.00 69 1015.8
20200228104016 10 22 1.6 1.6 0.00 0.00 0.00 70 1015.6
20200228103016 11 22 1.6 1.6 0.00 0.00 0.00 69 1015.5
20200228102016 11 22 1.6 1.6 0.00 0.00 0.00 67 1015.4
20200228101016 11 0.0 0.0 0.00 0.00 0.00 64 1015.3
20200228100016 12 0.0 1.6 0.00 0.00 0.00 61 1015.4
20200228095016 12 0.0 0.0 0.00 0.00 0.00 60 1015.4
20200228094016 13 22 3.2 4.8 0.00 0.00 0.00 59 1015.3
20200228093016 13 22 4.8 6.4 0.00 0.00 0.00 59 1015.2
20200228092016 12 22 6.4 9.7 0.00 0.00 0.00 59 1015.3
20200228091015 13 45 1.6 3.2 0.00 0.00 0.00 58 1015.4
20200228090016 13 45 3.2 6.4 0.00 0.00 0.00 58 1015.4
20200228085016 13 22 6.4 8.0 0.00 0.00 0.00 58 1015.5
20200228084016 13 45 4.8 6.4 0.00 0.00 0.00 61 1015.5
20200228083031 12 45 6.4 6.4 0.00 0.00 0.00 61 1015.6
20200228082016 12 45 3.2 4.8 0.00 0.00 0.00 59 1015.8
20200228081015 13 45 3.2 4.8 0.00 0.00 0.00 58 1015.8
20200228080015 12 45 3.2 4.8 0.00 0.00 0.00 57 1015.8
20200228075015 12 45 4.8 6.4 0.00 0.00 0.00 58 1015.7
20200228074015 12 45 3.2 4.8 0.00 0.00 0.00 61 1015.9
20200228073015 13 0.0 1.6 0.00 0.00 0.00 62 1016.0
20200228072015 13 45 3.2 4.8 0.00 0.00 0.00 64 1016.0
20200228071015 13 45 1.6 3.2 0.00 0.00 0.00 63 1016.0